Time,TemperatureF,DewpointF,PressureIn,WindDirection,WindDirectionDegrees,WindSpeedMPH,WindSpeedGustMPH,Humidity,HourlyPrecipIn,Conditions,Clouds,dailyrainin,SoftwareType,DateUTC
2013-05-09 00:07:00,57.6,56.0,30.04,SW,235,0.0,-999.0,93,-99.99,,,0.00,weatherlink.com 1.10,2013-05-09 05:07:00,
2013-05-09 00:21:00,57.3,55.0,30.04,SW,235,0.0,-999.0,93,-99.99,,,0.00,weatherlink.com 1.10,2013-05-09 05:21:00,
2013-05-09 00:36:00,56.9,55.0,30.03,SW,235,0.0,-999.0,93,-99.99,,,0.00,weatherlink.com 1.10,2013-05-09 05:36:00,
2013-05-09 00:51:00,56.5,55.0,30.03,SW,235,0.0,-999.0,93,-99.99,,,0.00,weatherlink.com 1.10,2013-05-09 05:51:00,
2013-05-09 01:06:00,56.0,54.0,30.03,SW,235,0.0,-999.0,93,-99.99,,,0.00,weatherlink.com 1.10,2013-05-09 06:06:00,
2013-05-09 01:21:00,55.6,54.0,30.02,SW,235,0.0,-999.0,93,-99.99,,,0.00,weatherlink.com 1.10,2013-05-09 06:21:00,
2013-05-09 01:36:00,55.3,53.0,30.02,SW,235,0.0,-999.0,93,-99.99,,,0.00,weatherlink.com 1.10,2013-05-09 06:36:00,
2013-05-09 01:52:00,54.9,53.0,30.02,SW,235,0.0,-999.0,93,-99.99,,,0.00,weatherlink.com 1.10,2013-05-09 06:52:00,
2013-05-09 02:07:00,54.6,53.0,30.02,SW,235,0.0,-999.0,94,-99.99,,,0.00,weatherlink.com 1.10,2013-05-09 07:07:00,
2013-05-09 02:22:00,54.3,53.0,30.03,SW,235,0.0,-999.0,94,-99.99,,,0.00,weatherlink.com 1.10,2013-05-09 07:22:00,
2013-05-09 02:37:00,54.0,52.0,30.03,SW,235,0.0,-999.0,94,-99.99,,,0.00,weatherlink.com 1.10,2013-05-09 07:37:00,
2013-05-09 02:52:00,53.8,52.0,30.03,SW,235,0.0,-999.0,94,-99.99,,,0.00,weatherlink.com 1.10,2013-05-09 07:52:00,
2013-05-09 03:07:00,53.5,52.0,30.04,SW,235,0.0,-999.0,94,-99.99,,,0.00,weatherlink.com 1.10,2013-05-09 08:07:00,
2013-05-09 03:22:00,53.3,52.0,30.04,SW,235,0.0,-999.0,94,-99.99,,,0.00,weatherlink.com 1.10,2013-05-09 08:22:00,
2013-05-09 03:37:00,53.0,51.0,30.04,SW,235,0.0,-999.0,94,-99.99,,,0.00,weatherlink.com 1.10,2013-05-09 08:37:00,
2013-05-09 03:52:00,52.8,51.0,30.04,SW,235,0.0,-999.0,94,-99.99,,,0.00,weatherlink.com 1.10,2013-05-09 08:52:00,
2013-05-09 04:07:00,52.5,51.0,30.04,SW,235,0.0,-999.0,94,-99.99,,,0.00,weatherlink.com 1.10,2013-05-09 09:07:00,
2013-05-09 04:22:00,52.2,51.0,30.04,SW,235,0.0,-999.0,94,-99.99,,,0.00,weatherlink.com 1.10,2013-05-09 09:22:00,
2013-05-09 04:37:00,51.9,50.0,30.04,SW,235,0.0,-999.0,94,-99.99,,,0.00,weatherlink.com 1.10,2013-05-09 09:37:00,
2013-05-09 04:52:00,51.6,50.0,30.04,SW,235,0.0,-999.0,94,-99.99,,,0.00,weatherlink.com 1.10,2013-05-09 09:52:00,
2013-05-09 05:07:00,51.5,50.0,30.04,SW,235,0.0,-999.0,95,-99.99,,,0.00,weatherlink.com 1.10,2013-05-09 10:07:00,
2013-05-09 05:22:00,51.2,50.0,30.05,SW,235,1.0,-999.0,95,-99.99,,,0.00,weatherlink.com 1.10,2013-05-09 10:22:00,
2013-05-09 05:37:00,51.2,50.0,30.05,SW,235,0.0,-999.0,95,-99.99,,,0.00,weatherlink.com 1.10,2013-05-09 10:37:00,
2013-05-09 05:52:00,51.1,50.0,30.05,SW,235,0.0,-999.0,95,-99.99,,,0.00,weatherlink.com 1.10,2013-05-09 10:52:00,
2013-05-09 06:07:00,51.1,50.0,30.06,SW,235,0.0,-999.0,95,-99.99,,,0.00,weatherlink.com 1.10,2013-05-09 11:07:00,
2013-05-09 06:22:00,51.1,50.0,30.06,SW,235,0.0,-999.0,95,-99.99,,,0.00,weatherlink.com 1.10,2013-05-09 11:22:00,
2013-05-09 06:37:00,51.5,50.0,30.07,SW,235,0.0,-999.0,96,-99.99,,,0.00,weatherlink.com 1.10,2013-05-09 11:37:00,
2013-05-09 06:52:00,51.9,51.0,30.07,SW,235,0.0,-999.0,96,-99.99,,,0.00,weatherlink.com 1.10,2013-05-09 11:52:00,
2013-05-09 07:07:00,52.6,52.0,30.08,SW,235,0.0,-999.0,96,-99.99,,,0.00,weatherlink.com 1.10,2013-05-09 12:07:00,
2013-05-09 07:22:00,53.5,52.0,30.09,South,188,0.0,-999.0,96,-99.99,,,0.00,weatherlink.com 1.10,2013-05-09 12:22:00,
2013-05-09 07:37:00,55.1,54.0,30.09,South,186,0.0,-999.0,97,-99.99,,,0.00,weatherlink.com 1.10,2013-05-09 12:37:00,
2013-05-09 07:52:00,56.6,56.0,30.10,South,187,0.0,-999.0,97,-99.99,,,0.00,weatherlink.com 1.10,2013-05-09 12:52:00,
2013-05-09 08:07:00,58.2,57.0,30.10,South,188,0.0,-999.0,96,-99.99,,,0.00,weatherlink.com 1.10,2013-05-09 13:07:00,
2013-05-09 08:22:00,60.0,58.0,30.10,South,188,0.0,-999.0,94,-99.99,,,0.00,weatherlink.com 1.10,2013-05-09 13:22:00,
2013-05-09 08:37:00,61.6,59.0,30.11,South,188,0.0,-999.0,91,-99.99,,,0.00,weatherlink.com 1.10,2013-05-09 13:37:00,
2013-05-09 08:52:00,63.4,60.0,30.10,South,188,0.0,-999.0,88,-99.99,,,0.00,weatherlink.com 1.10,2013-05-09 13:52:00,
2013-05-09 09:08:00,66.3,61.0,30.10,ESE,105,0.0,-999.0,84,-99.99,,,0.00,weatherlink.com 1.10,2013-05-09 14:08:00,
2013-05-09 09:23:00,68.6,62.0,30.10,ESE,105,0.0,-999.0,80,-99.99,,,0.00,weatherlink.com 1.10,2013-05-09 14:23:00,
2013-05-09 09:38:00,69.9,63.0,30.09,ESE,106,0.0,-999.0,79,-99.99,,,0.00,weatherlink.com 1.10,2013-05-09 14:38:00,
2013-05-09 09:53:00,70.6,62.0,30.10,WNW,286,1.0,-999.0,75,-99.99,,,0.00,weatherlink.com 1.10,2013-05-09 14:53:00,
2013-05-09 10:08:00,71.8,63.0,30.09,WNW,289,1.0,-999.0,73,-99.99,,,0.00,weatherlink.com 1.10,2013-05-09 15:08:00,
2013-05-09 10:23:00,72.8,64.0,30.10,NW,304,1.0,-999.0,73,-99.99,,,0.00,weatherlink.com 1.10,2013-05-09 15:23:00,
2013-05-09 10:38:00,73.9,64.0,30.11,WSW,243,0.0,-999.0,70,-99.99,,,0.00,weatherlink.com 1.10,2013-05-09 15:38:00,
2013-05-09 10:53:00,76.0,63.0,30.11,SW,217,3.0,-999.0,65,-99.99,,,0.00,weatherlink.com 1.10,2013-05-09 15:53:00,
2013-05-09 11:08:00,77.3,64.0,30.11,WSW,246,4.0,-999.0,64,-99.99,,,0.00,weatherlink.com 1.10,2013-05-09 16:08:00,
2013-05-09 11:23:00,78.1,63.0,30.11,West,275,2.0,-999.0,60,-99.99,,,0.00,weatherlink.com 1.10,2013-05-09 16:23:00,
2013-05-09 11:38:00,79.0,62.0,30.10,ESE,123,0.0,-999.0,56,-99.99,,,0.00,weatherlink.com 1.10,2013-05-09 16:38:00,
2013-05-09 11:53:00,79.6,62.0,30.10,SE,145,0.0,-999.0,55,-99.99,,,0.00,weatherlink.com 1.10,2013-05-09 16:53:00,
2013-05-09 12:08:00,79.9,60.0,30.10,NW,306,1.0,-999.0,50,-99.99,,,0.00,weatherlink.com 1.10,2013-05-09 17:08:00,
2013-05-09 12:23:00,79.9,61.0,30.10,SSW,194,3.0,-999.0,53,-99.99,,,0.00,weatherlink.com 1.10,2013-05-09 17:23:00,
2013-05-09 12:38:00,79.8,61.0,30.10,SW,233,1.0,-999.0,53,-99.99,,,0.00,weatherlink.com 1.10,2013-05-09 17:38:00,
2013-05-09 12:53:00,79.2,59.0,30.09,WSW,256,0.0,-999.0,51,-99.99,,,0.00,weatherlink.com 1.10,2013-05-09 17:53:00,
2013-05-09 13:23:00,80.3,61.0,30.08,SSE,166,2.0,-999.0,52,-99.99,,,0.00,weatherlink.com 1.10,2013-05-09 18:23:00,
2013-05-09 13:38:00,80.5,62.0,30.08,SW,215,0.0,-999.0,53,-99.99,,,0.00,weatherlink.com 1.10,2013-05-09 18:38:00,
2013-05-09 13:53:00,80.8,61.0,30.07,SSE,165,0.0,-999.0,52,-99.99,,,0.00,weatherlink.com 1.10,2013-05-09 18:53:00,
2013-05-09 14:08:00,80.7,59.0,30.07,WSW,250,1.0,-999.0,48,-99.99,,,0.00,weatherlink.com 1.10,2013-05-09 19:08:00,
2013-05-09 14:23:00,80.8,60.0,30.06,West,259,3.0,-999.0,50,-99.99,,,0.00,weatherlink.com 1.10,2013-05-09 19:23:00,
2013-05-09 14:38:00,81.1,61.0,30.05,SSE,148,1.0,-999.0,50,-99.99,,,0.00,weatherlink.com 1.10,2013-05-09 19:38:00,
2013-05-09 14:53:00,81.2,61.0,30.04,SSW,199,1.0,-999.0,50,-99.99,,,0.00,weatherlink.com 1.10,2013-05-09 19:53:00,
2013-05-09 15:08:00,81.9,61.0,30.03,WNW,283,2.0,-999.0,49,-99.99,,,0.00,weatherlink.com 1.10,2013-05-09 20:08:00,
2013-05-09 15:24:00,81.8,58.0,30.03,NW,313,1.0,-999.0,45,-99.99,,,0.00,weatherlink.com 1.10,2013-05-09 20:24:00,
2013-05-09 15:39:00,80.6,60.0,30.02,WNW,292,0.0,-999.0,50,-99.99,,,0.00,weatherlink.com 1.10,2013-05-09 20:39:00,
2013-05-09 15:54:00,81.1,61.0,30.02,WSW,238,2.0,-999.0,50,-99.99,,,0.00,weatherlink.com 1.10,2013-05-09 20:54:00,
2013-05-09 16:09:00,81.2,60.0,30.02,South,191,1.0,-999.0,49,-99.99,,,0.00,weatherlink.com 1.10,2013-05-09 21:09:00,
2013-05-09 16:24:00,80.3,60.0,30.02,WSW,253,2.0,-999.0,51,-99.99,,,0.00,weatherlink.com 1.10,2013-05-09 21:24:00,
2013-05-09 16:39:00,80.1,60.0,30.00,WNW,295,1.0,-999.0,50,-99.99,,,0.00,weatherlink.com 1.10,2013-05-09 21:39:00,
2013-05-09 16:54:00,80.3,62.0,30.00,East,101,2.0,-999.0,53,-99.99,,,0.00,weatherlink.com 1.10,2013-05-09 21:54:00,
2013-05-09 17:09:00,79.9,61.0,30.00,SSW,194,2.0,-999.0,52,-99.99,,,0.00,weatherlink.com 1.10,2013-05-09 22:09:00,
2013-05-09 17:24:00,79.3,61.0,30.00,SSW,212,2.0,-999.0,54,-99.99,,,0.00,weatherlink.com 1.10,2013-05-09 22:24:00,
2013-05-09 17:54:00,77.8,61.0,29.99,SSW,192,1.0,-999.0,56,-99.99,,,0.00,weatherlink.com 1.10,2013-05-09 22:54:00,
2013-05-09 18:09:00,77.6,61.0,29.99,SE,134,1.0,-999.0,56,-99.99,,,0.00,weatherlink.com 1.10,2013-05-09 23:09:00,
2013-05-09 18:24:00,77.2,60.0,29.99,SSW,205,1.0,-999.0,56,-99.99,,,0.00,weatherlink.com 1.10,2013-05-09 23:24:00,
2013-05-09 18:39:00,76.7,60.0,29.99,South,190,3.0,-999.0,56,-99.99,,,0.00,weatherlink.com 1.10,2013-05-09 23:39:00,
2013-05-09 18:54:00,76.2,61.0,29.99,South,173,2.0,-999.0,59,-99.99,,,0.00,weatherlink.com 1.10,2013-05-09 23:54:00,
2013-05-09 19:09:00,75.6,60.0,29.99,SSE,157,0.0,-999.0,59,-99.99,,,0.00,weatherlink.com 1.10,2013-05-10 00:09:00,
2013-05-09 19:24:00,74.7,60.0,29.99,SSE,165,0.0,-999.0,61,-99.99,,,0.00,weatherlink.com 1.10,2013-05-10 00:24:00,
2013-05-09 19:39:00,73.6,61.0,30.00,SW,219,0.0,-999.0,65,-99.99,,,0.00,weatherlink.com 1.10,2013-05-10 00:39:00,
2013-05-09 19:54:00,72.4,60.0,30.01,South,174,1.0,-999.0,66,-99.99,,,0.00,weatherlink.com 1.10,2013-05-10 00:54:00,
2013-05-09 20:09:00,71.2,60.0,30.02,South,175,0.0,-999.0,68,-99.99,,,0.00,weatherlink.com 1.10,2013-05-10 01:09:00,
2013-05-09 20:24:00,70.1,59.0,30.02,SW,214,0.0,-999.0,68,-99.99,,,0.00,weatherlink.com 1.10,2013-05-10 01:24:00,
2013-05-09 20:39:00,69.3,59.0,30.02,South,191,3.0,-999.0,70,-99.99,,,0.00,weatherlink.com 1.10,2013-05-10 01:39:00,
2013-05-09 20:54:00,68.7,60.0,30.03,SSW,204,0.0,-999.0,74,-99.99,,,0.00,weatherlink.com 1.10,2013-05-10 01:54:00,
2013-05-09 21:09:00,67.9,60.0,30.03,SSW,206,0.0,-999.0,76,-99.99,,,0.00,weatherlink.com 1.10,2013-05-10 02:09:00,
2013-05-09 21:24:00,66.7,60.0,30.03,SSW,207,0.0,-999.0,79,-99.99,,,0.00,weatherlink.com 1.10,2013-05-10 02:24:00,
2013-05-09 21:39:00,65.8,60.0,30.04,SSW,207,0.0,-999.0,82,-99.99,,,0.00,weatherlink.com 1.10,2013-05-10 02:39:00,
2013-05-09 21:54:00,65.1,60.0,30.04,SSW,207,0.0,-999.0,84,-99.99,,,0.00,weatherlink.com 1.10,2013-05-10 02:54:00,
2013-05-09 22:09:00,64.5,60.0,30.04,SSW,207,0.0,-999.0,84,-99.99,,,0.00,weatherlink.com 1.10,2013-05-10 03:09:00,
2013-05-09 22:24:00,64.1,59.0,30.04,SSW,207,1.0,-999.0,84,-99.99,,,0.00,weatherlink.com 1.10,2013-05-10 03:24:00,
2013-05-09 22:39:00,63.7,59.0,30.03,SSW,207,0.0,-999.0,85,-99.99,,,0.00,weatherlink.com 1.10,2013-05-10 03:39:00,
2013-05-09 22:54:00,63.2,59.0,30.03,SSW,207,0.0,-999.0,86,-99.99,,,0.00,weatherlink.com 1.10,2013-05-10 03:54:00,
2013-05-09 23:09:00,62.6,59.0,30.04,SSW,207,0.0,-999.0,87,-99.99,,,0.00,weatherlink.com 1.10,2013-05-10 04:09:00,
2013-05-09 23:24:00,62.1,59.0,30.05,SSW,207,0.0,-999.0,88,-99.99,,,0.00,weatherlink.com 1.10,2013-05-10 04:24:00,
2013-05-09 23:39:00,61.6,58.0,30.04,SSW,207,0.0,-999.0,89,-99.99,,,0.00,weatherlink.com 1.10,2013-05-10 04:39:00,
2013-05-09 23:54:00,61.3,58.0,30.04,SSW,207,0.0,-999.0,90,-99.99,,,0.00,weatherlink.com 1.10,2013-05-10 04:54:00,